• Processing (Info)

  • MPEC 2017-F76 : 2017 FH3

    The following Minor Planet Electronic Circular may be linked-to from your own Web pages, but must not otherwise be redistributed electronically.

    A form allowing access to any MPEC is at the bottom of this page.


    Read MPEC 2017-F75 Read MPEC 2017-F77


    M.P.E.C. 2017-F76                                Issued 2017 Mar. 22, 15:47 UT
    
         The Minor Planet Electronic Circulars contain information on unusual
             minor planets and routine data on comets.  They are published
        on behalf of Division F of the International Astronomical Union by the
              Minor Planet Center, Smithsonian Astrophysical Observatory,
                              Cambridge, MA 02138, U.S.A.
    
                 Prepared using the Tamkin Foundation Computer Network
    
                                  MPC@CFA.HARVARD.EDU
                URL https://www.minorplanetcenter.net/    ISSN 1523-6714
    
                                       2017 FH3
    
    Observations:
         K17F03H* C2017 03 20.29691 11 37 39.130+08 15 37.76         20.1 wLEF076F51
         K17F03H  C2017 03 20.30856 11 37 32.990+08 15 52.38         20.3 wLEF076F51
         K17F03H  C2017 03 20.32022 11 37 26.819+08 16 07.24         20.3 wLEF076F51
         K17F03H  C2017 03 20.33186 11 37 20.640+08 16 21.92         20.3 wLEF076F51
         K17F03H KC2017 03 20.90235 11 32 16.63 +08 27 59.0                UEF076J95
         K17F03H KC2017 03 20.90789 11 32 13.55 +08 28 05.8                UEF076J95
         K17F03H KC2017 03 20.91326 11 32 10.50 +08 28 13.2          20.2 GUEF076J95
         K17F03H  C2017 03 21.19605 11 29 33.71 +08 34 30.9          20.5 RuEF076926
         K17F03H  C2017 03 21.20159 11 29 30.51 +08 34 38.0          20.3 RuEF076926
         K17F03H  C2017 03 21.20712 11 29 27.27 +08 34 45.5          20.4 RuEF076926
         K17F03H HC2017 03 21.29579 11 28 35.40 +08 36 41.4                oEF076691
         K17F03H HC2017 03 21.30634 11 28 29.20 +08 36 55.4                oEF076691
         K17F03H HC2017 03 21.31680 11 28 22.93 +08 37 09.5                oEF076691
         K17F03H KC2017 03 21.44186111 27 10.89 +08 40 02.3          20.1 GUEF076T04
         K17F03H KC2017 03 21.44590711 27 08.46 +08 40 07.2          19.6 GUEF076T04
         K17F03H KC2017 03 21.44994211 27 06.06 +08 40 12.2          19.6 GUEF076T04
         K17F03H KC2017 03 21.45398211 27 03.61 +08 40 17.8          20.2 GUEF076T04
         K17F03H KC2017 03 21.45602011 27 02.42 +08 40 20.1          20.6 GUEF076T04
         K17F03H  C2017 03 22.41633 11 17 13.91 +09 01 41.9          19.3 RoEF076926
         K17F03H  C2017 03 22.41875 11 17 12.32 +09 01 45.4          19.3 RoEF076926
         K17F03H  C2017 03 22.42118 11 17 10.73 +09 01 48.6          19.3 RoEF076926
    
    Observer details:
    691 Steward Observatory, Kitt Peak.  Observer M. T. Read.  0.9-m f/3 reflector
        + CCD.
    926 Tenagra II Observatory.  Observers M. Schwartz, P. R. Holvorcem.  Measurer
        M. Schwartz.  0.41-m f/3.75 astrograph + CCD, 0.81-m f/7 Ritchey-Chretien
        + CCD.
    F51 Pan-STARRS 1, Haleakala.  Observers B. Gibson, T. Goggia, S. Kahale,
        T. Lowe, A. Schultz, M. Willman.  Measurers K. Chambers, S. Chastel,
        L. Denneau, H. Flewelling, M. Huber, E. Lilly, E. Magnier, R. Wainscoat,
        C. Waters, R. Weryk.  1.8-m Ritchey-Chretien + CCD.
    J95 Great Shefford.  Observer P. Birtwhistle.  0.40-m f/6.0 Schmidt-Cassegrain
        + CCD.
    T04 Haleakala-LCOGT OGG B #2.  Observers T. Lister, S. Greenstreet, E. Gomez.
        Measurer T. Lister.  0.4-m f/8 Schmidt-Cassegrain + CCD.
    
    Orbital elements:
    2017 FH3                                                 Earth MOID = 0.0251 AU
    Epoch 2017 Feb. 16.0 TT = JDT 2457800.5                 MPC
    M 284.01196              (2000.0)            P               Q
    n   0.76008576     Peri.  307.41951     +0.63836293     +0.76968807
    a   1.1891254      Node     2.30468     -0.62189214     +0.52226313
    e   0.6660911      Incl.   12.27009     -0.45358895     +0.36718046
    P   1.30           H   22.9           G   0.15           U   6
    Residuals in seconds of arc
    170320 F51  0.1-  0.1+    170321 926  0.1+  0.2-    170321 T04  0.2+  0.2-
    170320 F51  0.0   0.0     170321 926  0.3+  0.4-    170321 T04  0.5+  0.4-
    170320 F51  0.1+  0.1+    170321 926  0.1-  0.2-    170321 T04  0.1+  0.1-
    170320 F51  0.1+  0.1+    170321 691  0.0   0.2-    170321 T04  0.6+  0.5-
    170320 J95  0.1+  0.1+    170321 691  0.2+  0.0     170322 926  0.0   0.1+
    170320 J95  0.3+  0.3-    170321 691  1.3-  0.5+    170322 926  0.0   0.3+
    170320 J95  0.4-  0.2+    170321 T04  0.3+  0.2+    170322 926  0.0   0.3+
    
    Ephemeris:
    2017 FH3                 a,e,i = 1.19, 0.67, 12                  q = 0.3971
    Date    TT    R. A. (2000) Decl.     Delta      r     Elong.  Phase     V
    2017 02 20    12 59 00.2 +03 59 58   0.5506  1.4474   138.4    27.0    23.6
    ...
    2017 03 07    12 40 52.4 +05 12 50   0.3436  1.3160   157.3    16.9    22.1
    ...
    2017 03 15    12 12 41.3 +06 42 43   0.2465  1.2383   170.6     7.6    20.9
    ...
    2017 03 21    11 31 22.2 +08 30 36   0.1832  1.1762   168.6     9.6    20.2
    2017 03 22    11 21 38.5 +08 52 36   0.1737  1.1655   165.7    12.2    20.2
    2017 03 23    11 10 49.7 +09 15 34   0.1647  1.1548   162.4    15.1    20.1
    ...
    2017 03 29    09 37 05.2 +11 29 54   0.1231  1.0882   134.5    40.9    20.1
    ...
    2017 04 06    06 36 54.0 +10 15 27   0.1202  0.9939    83.3    89.8    21.5
    ...
    2017 04 21    03 43 00.4 +03 43 18   0.2408  0.8002    27.9   144.0    26.7
    
    A. U. Tomatic                (C) Copyright 2017 MPC           M.P.E.C. 2017-F76
    

    Read MPEC 2017-F75 Read MPEC 2017-F77


    MPEC number:

    Enter an MPEC number in one of the following forms:

    • 1997-B01 (the full form)
    • J97B01 (the packed version of the full form)
    • B01 (the abbreviated form)